Location: Cruquius
(52.3348°N, 4.6319°E)
Time: 04:40:27
(UTC+00:00)

Cosmos 1943 Rocket - Pass Details

Date: 12 May 2021
Orbit: 813 x 842 km, 71.0° (Epoch: 14 June)

Event Time Altitude Azimuth Distance (km) Brightness Sun altitude
Exits shadow 21:54:26 25° 159° (SSE) 1,634 3.1 -15.8°
Maximum altitude 21:57:03 39° 109° (ESE) 1,229 2.7 -16.0°
Drops below altitude 10° 22:02:12 10° 42° (NE) 2,444 4.9 -16.3°
Sets 22:04:46 0° 35° (NE) 3,377 5.8 -16.5°
